Terminal Aerodrome Forecast
Issued by NWS

Home | Current Version | Previous Version | Text Only | Print | Product List | Glossary Off
Versions: 1 2 3 4 5 6 7 8 9 10 11 12 13 14 15 16 17 18 19 20 21

000
FTUS43 KTOP 030500
TAFMHK
TAF
KMHK 030520Z 0306/0406 20010KT P6SM SCT150 WS020/19030KT
     FM031000 20010KT P6SM SCT150
     FM031400 20016G23KT P6SM FEW150
     FM040100 18010KT P6SM SCT120=

USA.gov is the U.S. government's official web portal to all federal, state and local government web resources and services.